Hourly Data Report for July 28, 2021

CARIBOU POINT (AUT)
NOVA SCOTIA
Current Station Operator: ECCC - MSC

45°46'00.000" N
62°41'00.000" W
2.40 m
8200774
71415
WBK

Download Data

Hourly Data (July 2021)
Hourly Data Report for July 28, 2021
TIME
LST
Temp Definition
°C
Dew Point Definition
°C
Rel Hum Definition
%
Precip. Amount Definition
mm

Wind Dir Definition
10's deg

Wind Spd Definition
km/h
Visibility Definition
km
Stn Press Definition
kPa
Hmdx Definition


Wind Chill Definition


Weather Definition


00:00 19.0 17.2 89 0.0 23 8   100.96     LegendNANA
01:00 18.4 17.0 91 0.0 22 8   100.99     LegendNANA
02:00 18.0 16.6 92 0.0 24 5   100.97     LegendNANA
03:00 18.1 16.3 89 0.0 25 6   100.95     LegendNANA
04:00 18.2 16.8 92 0.0 27 8   100.96     LegendNANA
05:00 18.0 17.0 94 0.0 31 5   101.01     LegendNANA
06:00 18.0 16.6 92 0.0 31 12   101.06     LegendNANA
07:00 17.5 15.3 87 0.0 31 13   101.12     LegendNANA
08:00 18.2 15.6 85 0.0 34 11   101.16     LegendNANA
09:00 19.2 16.1 82 0.0 31 14   101.15     LegendNANA
10:00 19.1 15.2 78 0.0 32 16   101.17     LegendNANA
11:00 19.0 15.7 81 0.0 32 14   101.16     LegendNANA
12:00 19.5 16.5 83 0.0 31 21   101.15     LegendNANA
13:00 19.6 16.0 79 0.0 31 18   101.13     LegendNANA
14:00 19.7 15.5 77 0.0 31 19   101.10     LegendNANA
15:00 19.9 13.7 68 0.0 31 24   101.10     LegendNANA
16:00 20.2 13.3 65 0.0 32 20   101.08     LegendNANA
17:00 19.7 13.8 69 0.0 32 17   101.08     LegendNANA
18:00 19.1 14.5 75 0.0 6 5   101.12     LegendNANA
19:00 19.5 16.2 82 0.0 12 6   101.14     LegendNANA
20:00 17.8 15.5 87 0.0 14 3   101.18     LegendNANA
21:00 17.1 15.4 90 0.0 15 5   101.23     LegendNANA
22:00 17.1 15.6 91 0.0 22 3   101.23     LegendNANA
23:00 16.7 15.6 93 0.0 19 3   101.22     LegendNANA

Notes on Data Quality.

Legend

  • E = Estimated
  • M = Missing
  • NA = Not Available*
  • [empty] = Indicates an unobserved value
Date modified: